Terug naar catalogus

DELTA 1 DEB

ActiefSSO
NORAD 40773·DEBRIS·🇺🇸 United States

Gelanceerd Jul 29, 1976 vanaf Vandenberg Space Force Base

Loading…

Volgende Passages (komende 24 uur)

TLE

VerouderendSource: Space-Track

Epoch: Sep 10, 2026, 03:45 UTC

1 40773U 76077GS  26253.15632534 -.00000019  00000-0  22843-3 0  9998
2 40773 102.4853 230.9026 0082109 145.3660 215.2779 12.27348209982878

Volg DELTA 1 DEB in realtime met AllMySat

Download on the App Store